Flag for U.S.A. Weather past 2 weeks in Pensacola, Florida, U.S.A.

Now
50 °F

Fog.


Feels Like: 50 °F
Forecast: 49 / 66 °F
Wind: No wind

Location: Pensacola Regional Airport

Current Time: Mar 1, 2015 at 9:56:40 AM

Latest Report: Mar 1, 2015 at 8:53 AM


Visibility: 1 mi

Pressure: 30.41 "Hg

Humidity: 100%

Dew point: 50 °F

Location of PensacolaLocation

Historic Weather in Pensacola — Graph

°F

Pensacola temperature yesterday

Maximum temperature yesterday: 60 °F (at 1:53 PM)
Minimum temperature yesterday: 40 °F (at 5:53 AM)
Average temperature yesterday: 51 °F

Past Weeks' High & Low Weather Summary

 TemperatureHumidityPressure
High74 °F (Feb 22, 1:00 PM)100% (Feb 22, 11:01 PM)30.48 "Hg (Feb 22, 11:01 PM)
Low28 °F (Feb 19, 5:53 AM)17% (Feb 18, 3:53 PM)29.57 "Hg (Feb 25, 5:53 PM)
Average49 °F71%30.16 "Hg
* Reported Feb 14 8:53 AM — Mar 1 8:53 AM, Pensacola, Weather by CustomWeather, © 2015

Note: Actual official high and low records may vary slightly from our data, if they occured in-between our weather recording intervals... More about our weather records

Advertising

Pensacola weather history for previous 24 hours

 ConditionsComfort  
Time TempWeatherWind HumidityBarometerVisibility
8:53 AM
Sun, Mar 1
50 °FFog.No wind100%30.41 "Hg1 mi
7:53 AM50 °FFog.8 mph96%30.38 "Hg1 mi
6:53 AM50 °FFog.3 mph96%30.38 "Hg1 mi
5:53 AM49 °FFog.6 mph97%30.36 "Hg2 mi
4:53 AM49 °FFog.7 mph97%30.36 "Hg5 mi
3:53 AM49 °FFog.5 mph97%30.37 "Hg4 mi
2:53 AM49 °FFog.7 mph93%30.36 "Hg5 mi
1:53 AM50 °FLow clouds.7 mph89%30.37 "Hg10 mi
12:53 AM50 °FLow clouds.6 mph89%30.39 "Hg10 mi
11:53 PM
Sat, Feb 28
49 °FLow clouds.7 mph93%30.39 "Hg10 mi
10:53 PM50 °FLow clouds.7 mph89%30.42 "Hg9 mi
9:53 PM51 °FFog.8 mph89%30.42 "Hg6 mi
8:53 PM52 °FOvercast.7 mph86%30.42 "Hg10 mi
8:04 PM53 °FOvercast.7 mph83%30.39 "Hg10 mi
7:53 PM54 °FOvercast.8 mph80%30.39 "Hg10 mi
6:53 PM56 °FOvercast.6 mph77%30.37 "Hg10 mi
5:53 PM57 °FOvercast.6 mph74%30.36 "Hg10 mi
4:53 PM59 °FOvercast.6 mph67%30.34 "Hg10 mi
3:53 PM60 °FOvercast.7 mph65%30.35 "Hg10 mi
2:53 PM60 °FOvercast.7 mph62%30.35 "Hg10 mi
1:53 PM60 °FOvercast.8 mph60%30.35 "Hg10 mi
12:53 PM59 °FOvercast.8 mph60%30.37 "Hg10 mi
11:53 AM57 °FOvercast.9 mph58%30.40 "Hg10 mi
10:53 AM53 °FMostly cloudy.8 mph56%30.43 "Hg10 mi
9:53 AM51 °FOvercast.9 mph54%30.44 "Hg10 mi
Weather by CustomWeather, © 2015

See weather overviewHow to use our weather pages